Terminal Aerodrome Forecast
Issued by NWS

Current Version | Previous Version | Text Only | Print | Product List | Glossary On
Versions: 1 2 3 4 5 6 7 8 9 10 11 12 13
000
FTUS42 TJSJ 031120
TAFIST
TAF
TIST 031120Z 0312/0412 07005KT P6SM FEW020
     FM031300 15008KT P6SM FEW025
     FM032300 07005KT P6SM FEW025=

USA.gov is the U.S. government's official web portal to all federal, state and local government web resources and services.